Temp
53 46 42 49 52 54 53 50 50 51 55 54 55 56 61 66 65 64 67 69 71 72 77 78 78 78 78 78 77 78 78 78 77 75 73 69 67 69 73 75 73 72 74 73
46 41 52 52 52 50 48 47 47 49 53 52 54 53 59 62 63 65 67 68 69 71 74 75 76 76 75 75 76 76 76 77 77 77 76 75 74 72 72 74 73 73 73 72
44 49 53 48 46 45 46 45 47 47 49 52 49 50 54 60 62 64 67 68 70 70 70 73 75 74 74 73 73 74 76 77 78 77 77 75 75 74 73 72 72 72 71 71
47 54 48 46 46 48 42 51 48 46 45 42 50 43 57 58 56 57 61 64 67 69 70 69 69 71 71 69 70 71 73 74 76 77 74 72 72 71 74 74 73 72 71 71
43 44 44 43 46 50 46 51 47 46 43 43 46 40 52 53 54 56 61 63 67 68 67 67 66 64 65 64 65 68 69 71 73 74 73 72 70 73 75 74 70 70 70 70
49 51 50 49 50 50 51 46 45 45 43 32 44 43 48 56 56 58 62 65 65 65 66 64 62 62 62 63 65 67 68 68 70 71 71 71 71 71 70 70 69 70 71 71
43 43 47 51 45 48 47 43 32 29 29 30 48 42 47 55 54 58 61 65 66 63 63 61 60 58 57 58 60 61 63 60 62 64 65 68 69 69 67 67 67 67 68 69
34 30 43 48 48 42 42 43 35 25 30 36 43 36 47 59 63 63 63 65 61 61 59 57 55 55 55 55 57 58 58 58 57 57 57 57 57 57 57 57 60 59 60 61
36 37 48 47 51 50 42 37 49 39 30 33 42 45 51 55 56 58 60 61 60 57 55 53 53 54 54 52 53 54 55 55 56 57 57 56 56 56 56 56 57 58 59 60
44 35 44 46 50 51 47 50 35 38 27 25 37 40 44 48 52 58 59 57 56 53 52 52 52 51 51 51 52 52 52 52 53 54 55 55 56 56 57 57 56 56 58 59
46 42 36 43 40 40 39 39 41 42 38 31 29 39 57 55 57 57 59 60 54 52 51 49 48 49 49 50 50 49 49 48 48 50 51 51 52 53 53 53 53 53 54 55
45 42 34 35 48 51 47 43 43 35 32 38 38 40 52 53 55 57 57 54 53 51 49 48 47 47 47 47 47 46 45 45 45 47 47 48 49 49 48 48 49 49 49 51
44 34 28 29 36 42 40 43 44 45 41 34 30 37 56 52 50 51 51 50 49 47 46 46 46 45 45 45 44 43 43 42 43 44 45 45 44 43 43 43 44 45 45 46
48 40 35 32 38 42 35 40 43 41 32 35 37 42 51 49 51 47 48 48 46 46 44 45 43 42 41 41 42 41 40 40 40 41 41 39 38 38 39 39 40 40 41 42
43 32 38 40 45 44 42 40 41 37 40 35 41 42 49 54 50 49 49 46 44 43 43 42 40 39 38 38 38 37 36 36 37 37 35 34 33 35 36 35 36 37 38 38
42 32 35 31 41 42 36 42 42 41 42 41 43 42 55 58 56 49 46 43 42 42 41 38 36 35 34 34 33 33 33 33 35 32 31 31 32 32 31 32 33 34 34 35
37 33 31 28 37 36 27 35 40 42 45 44 38 46 54 50 47 46 45 44 43 41 38 36 34 33 32 31 30 30 31 33 32 31 31 30 29 29 30 30 31 31 31 33
33 32 32 30 30 21 35 46 44 43 45 48 48 50 52 53 48 47 49 45 41 38 35 33 32 31 30 29 29 31 30 30 30 29 28 28 27 27 28 29 29 30 30 30
38 35 30 27 27 35 38 40 41 38 40 49 47 49 52 37 36 31 36 42 38 35 32 31 30 29 28 28 29 29 28 28 28 26 26 26 26 25 26 26 27 28 28 29
39 39 32 29 24 23 39 44 47 49 34 50 49 49 42 36 36 46 32 32 30 30 29 28 28 27 27 26 28 27 25 25 24 24 24 25 25 24 25 26 26 26 27 27
30 31 28 29 27 31 43 36 44 29 37 47 49 49 37 38 40 35 30 29 29 27 25 27 27 25 24 25 26 24 24 22 23 23 23 23 23 22 24 24 24 24 24 24
31 29 29 31 27 24 37 34 38 40 30 32 34 38 36 28 26 27 26 25 25 23 23 24 23 22 22 23 24 22 21 21 21 20 19 18 19 21 22 20 21 21 21 21
29 36 32 34 33 26 27 27 26 28 28 26 28 28 27 24 24 24 22 23 22 22 21 22 22 20 20 20 20 19 18 18 17 14 13 15 16 18 18 18 18 18 19 19
28 31 31 30 25 24 23 22 24 26 27 26 28 26 26 23 23 22 22 21 20 19 19 19 19 18 16 16 16 16 16 15 11 11 13 14 14 14 16 17 18 17 17 17
29 29 25 25 19 19 23 24 24 23 24 23 24 24 24 23 21 21 20 18 18 17 17 17 16 15 14 14 13 13 12 11 10 10 11 12 13 13 13 15 15 16 18 18
28 28 30 31 27 28 26 25 24 22 21 22 21 20 23 23 20 19 16 17 16 14 14 13 13 12 11 10 9 8 7 7 6 7 9 9 10 10 11 12 12 16 17 17
MSLP
1020.00 1019.78 1018.38 1018.67 1018.56 1018.53 1018.26 1018.29 1018.03 1018.44 1018.44 1018.23 1017.06 1015.68 1015.14 1015.24 1015.34 1015.00 1014.52 1014.37 1014.15 1013.86 1013.96 1013.96 1014.19 1014.54 1014.63 1014.72 1014.91 1014.92 1014.85 1015.07 1015.53 1015.77 1016.04 1016.52 1016.58 1016.80 1016.88 1016.92 1017.43 1017.87 1018.06 1018.39
1019.93 1018.23 1018.86 1019.26 1019.34 1019.19 1019.02 1018.65 1018.63 1019.10 1018.89 1018.70 1017.43 1015.58 1014.94 1014.69 1014.36 1014.20 1014.05 1013.90 1013.77 1013.64 1013.17 1013.24 1013.71 1014.06 1014.22 1014.25 1014.33 1014.50 1014.44 1014.51 1014.75 1014.93 1015.23 1015.57 1015.79 1016.08 1016.26 1016.45 1016.57 1016.92 1017.20 1017.51
1018.13 1017.66 1018.70 1019.19 1019.34 1019.19 1018.89 1018.72 1018.94 1019.12 1019.23 1018.87 1017.96 1014.92 1014.17 1013.39 1013.38 1013.52 1013.60 1013.56 1013.40 1013.08 1012.79 1012.79 1013.20 1013.54 1013.83 1013.98 1014.08 1014.09 1014.02 1014.02 1014.02 1014.28 1014.65 1015.01 1015.30 1015.42 1015.45 1015.62 1015.91 1016.25 1016.68 1016.96
1018.30 1017.97 1018.36 1018.64 1018.29 1018.85 1018.47 1018.78 1019.31 1019.51 1019.50 1018.58 1018.20 1013.59 1012.24 1012.60 1012.98 1013.19 1013.11 1013.13 1012.73 1012.68 1012.90 1013.11 1013.39 1013.46 1013.65 1013.90 1013.96 1013.94 1013.79 1013.71 1013.64 1013.81 1014.06 1014.16 1014.20 1014.24 1014.36 1014.77 1015.24 1015.66 1016.08 1016.31
1017.26 1017.71 1018.15 1018.12 1017.45 1018.59 1018.13 1018.62 1019.17 1019.57 1019.46 1019.14 1017.63 1016.68 1011.18 1012.34 1012.26 1012.61 1012.54 1012.41 1012.33 1012.51 1012.93 1013.24 1013.66 1013.99 1014.09 1014.18 1013.97 1013.76 1013.53 1013.37 1013.26 1013.35 1013.56 1013.77 1014.01 1013.96 1014.11 1014.42 1014.93 1015.23 1015.46 1015.60
1017.01 1017.56 1017.49 1017.14 1017.76 1018.24 1018.67 1019.10 1019.64 1019.84 1019.66 1018.33 1016.10 1015.84 1010.34 1011.28 1011.41 1011.76 1011.84 1011.84 1012.14 1012.50 1013.00 1013.55 1014.19 1014.51 1014.63 1014.51 1014.10 1013.64 1013.46 1013.38 1013.28 1013.32 1013.57 1013.59 1013.76 1013.95 1014.18 1014.40 1014.60 1014.76 1015.00 1015.17
1017.13 1017.34 1017.37 1017.29 1017.80 1018.36 1018.40 1018.51 1019.07 1019.60 1019.05 1015.83 1015.49 1015.26 1010.35 1011.04 1011.59 1011.52 1011.50 1011.69 1012.14 1012.65 1013.21 1013.97 1014.46 1015.04 1015.46 1015.45 1015.15 1014.87 1014.58 1014.51 1014.34 1014.05 1014.02 1013.95 1013.87 1014.01 1014.42 1014.54 1014.66 1014.74 1014.87 1014.97
1015.84 1016.29 1016.24 1016.37 1015.95 1016.52 1017.27 1017.27 1016.73 1017.00 1016.53 1015.30 1015.51 1013.40 1010.26 1010.88 1011.04 1011.28 1011.54 1011.75 1012.42 1013.04 1013.95 1014.84 1015.33 1015.91 1016.17 1016.40 1016.21 1016.04 1015.89 1015.68 1015.58 1015.41 1015.37 1015.27 1015.26 1015.44 1015.63 1015.64 1015.43 1015.61 1015.58 1015.58
1014.72 1014.52 1014.83 1015.49 1015.66 1015.80 1016.58 1016.29 1016.31 1016.53 1017.19 1015.91 1013.42 1011.78 1011.07 1010.97 1011.24 1011.24 1011.12 1011.56 1012.32 1013.68 1014.94 1015.71 1016.15 1016.62 1016.94 1017.16 1017.13 1017.05 1017.16 1017.04 1016.69 1016.38 1016.30 1016.33 1016.35 1016.35 1016.43 1016.48 1016.42 1016.38 1016.37 1016.16
1014.20 1014.29 1014.44 1015.28 1015.81 1015.34 1015.16 1016.09 1016.62 1016.44 1015.64 1014.81 1012.35 1011.53 1009.84 1010.24 1010.44 1010.58 1011.08 1011.66 1012.93 1014.29 1015.41 1016.28 1016.95 1017.46 1017.83 1017.96 1017.99 1018.05 1018.07 1018.05 1018.04 1017.76 1017.51 1017.51 1017.55 1017.49 1017.42 1017.38 1017.32 1017.28 1017.08 1016.86
1013.73 1013.72 1014.73 1014.93 1013.93 1013.63 1015.24 1014.95 1015.17 1015.12 1014.84 1013.42 1012.37 1010.09 1009.26 1009.32 1010.03 1010.25 1010.76 1011.61 1013.09 1014.54 1015.82 1016.91 1017.76 1018.30 1018.52 1018.64 1018.78 1018.96 1018.96 1018.97 1018.87 1018.87 1018.76 1018.59 1018.61 1018.57 1018.46 1018.33 1018.29 1018.16 1017.90 1017.63
1012.52 1013.16 1013.34 1013.53 1013.23 1013.40 1013.05 1012.79 1013.02 1013.20 1013.03 1012.80 1011.57 1009.19 1009.62 1010.04 1010.32 1010.48 1011.07 1012.34 1013.83 1015.23 1016.38 1017.27 1018.04 1018.68 1019.09 1019.29 1019.56 1019.82 1019.89 1019.91 1019.99 1019.83 1019.65 1019.54 1019.45 1019.51 1019.52 1019.56 1019.33 1019.09 1018.78 1018.40
1012.23 1012.85 1013.08 1013.32 1013.85 1013.49 1012.34 1012.39 1012.90 1012.71 1012.95 1012.08 1011.74 1009.77 1009.75 1010.26 1010.74 1011.21 1012.02 1013.17 1014.50 1015.84 1017.11 1018.03 1018.68 1019.19 1019.68 1020.08 1020.43 1020.64 1020.70 1020.70 1020.71 1020.61 1020.36 1020.29 1020.15 1020.36 1020.43 1020.45 1020.31 1019.88 1019.53 1019.20
1011.02 1011.22 1011.11 1010.02 1009.81 1010.91 1011.92 1011.54 1011.93 1012.09 1012.09 1011.32 1010.65 1009.89 1008.83 1009.84 1010.52 1011.63 1012.68 1014.00 1015.05 1016.21 1017.44 1018.42 1019.18 1020.03 1020.53 1020.87 1021.19 1021.49 1021.72 1021.69 1021.35 1021.06 1021.01 1021.34 1021.49 1021.11 1021.47 1021.25 1021.00 1020.69 1020.24 1019.83
1011.23 1010.86 1011.00 1010.50 1009.89 1009.85 1009.93 1010.39 1010.77 1011.14 1011.09 1010.79 1009.58 1009.19 1008.48 1008.60 1010.30 1011.49 1012.48 1014.23 1015.70 1016.65 1017.68 1018.67 1019.59 1020.56 1021.33 1021.66 1021.92 1022.15 1022.36 1022.43 1022.32 1021.89 1021.72 1022.28 1022.79 1021.86 1022.39 1021.85 1021.38 1021.51 1021.23 1020.37
1010.89 1010.53 1010.79 1010.17 1009.97 1009.95 1009.60 1009.63 1010.02 1010.12 1009.70 1009.26 1009.19 1008.67 1008.09 1008.05 1010.20 1011.61 1012.84 1014.14 1015.42 1016.75 1017.94 1019.27 1020.24 1021.05 1021.79 1022.38 1022.49 1022.69 1023.14 1023.36 1023.17 1022.55 1022.29 1023.00 1023.00 1022.70 1022.30 1022.51 1022.32 1021.97 1021.36 1020.79
1010.29 1010.42 1010.66 1009.62 1009.35 1009.65 1009.54 1008.96 1008.22 1008.38 1008.43 1008.09 1007.89 1007.36 1007.17 1009.03 1010.32 1011.30 1012.66 1013.94 1015.19 1016.90 1018.52 1019.73 1020.70 1021.53 1022.26 1022.92 1023.38 1023.64 1023.64 1023.46 1023.14 1023.12 1023.42 1023.62 1023.77 1023.51 1023.54 1023.24 1022.87 1022.42 1021.22 1020.65
1009.61 1010.02 1010.09 1008.94 1009.32 1007.70 1007.40 1007.95 1008.19 1007.95 1007.26 1007.26 1007.13 1007.10 1006.99 1008.46 1010.42 1011.75 1012.86 1013.90 1015.55 1017.35 1018.98 1020.36 1021.38 1022.22 1022.83 1023.43 1023.83 1023.86 1023.98 1023.85 1023.90 1024.12 1024.46 1024.54 1024.43 1024.25 1023.98 1023.34 1022.68 1022.19 1021.65 1021.46
1009.35 1009.73 1009.43 1008.16 1007.93 1006.95 1006.96 1006.65 1006.28 1006.55 1005.80 1006.39 1006.87 1006.42 1007.42 1010.17 1012.15 1013.66 1014.35 1015.16 1016.65 1018.24 1019.80 1021.01 1021.94 1022.69 1023.26 1023.72 1024.01 1024.19 1024.28 1024.43 1024.48 1024.65 1024.81 1024.64 1024.52 1024.33 1023.92 1023.42 1022.93 1022.59 1022.21 1021.47
1008.69 1008.39 1009.22 1008.76 1007.95 1006.94 1006.05 1005.60 1006.09 1006.82 1006.42 1005.09 1005.87 1006.15 1008.40 1011.00 1012.47 1011.97 1015.06 1016.62 1018.17 1019.59 1020.76 1021.70 1022.53 1023.23 1023.78 1024.34 1024.37 1024.47 1024.71 1024.91 1024.99 1025.24 1025.21 1025.12 1024.90 1024.63 1024.13 1023.68 1023.18 1022.78 1022.53 1021.71
1007.89 1008.07 1007.60 1007.64 1007.72 1007.37 1006.09 1006.90 1007.13 1008.02 1006.26 1004.69 1005.67 1006.43 1009.21 1010.34 1011.40 1012.59 1015.49 1017.58 1019.11 1020.37 1021.48 1022.39 1023.01 1023.64 1024.24 1024.57 1024.76 1024.86 1025.09 1025.29 1025.62 1025.69 1025.65 1025.44 1025.20 1024.88 1024.39 1023.93 1023.60 1023.03 1022.40 1021.72
1006.43 1006.60 1007.17 1007.67 1007.93 1007.74 1006.87 1008.42 1007.85 1006.74 1007.30 1007.56 1007.56 1007.94 1009.65 1011.91 1013.69 1015.24 1016.75 1018.26 1019.78 1020.90 1021.99 1022.80 1023.45 1024.08 1024.81 1024.91 1025.07 1025.45 1025.54 1025.89 1026.00 1026.04 1025.94 1025.78 1025.55 1025.15 1024.58 1024.25 1023.60 1023.08 1022.42 1021.50
1005.26 1005.17 1006.43 1007.62 1007.61 1008.63 1008.45 1008.62 1009.14 1009.35 1009.20 1009.99 1009.68 1010.51 1011.69 1013.30 1014.91 1016.36 1017.65 1019.14 1020.40 1021.41 1022.28 1023.04 1023.70 1024.42 1025.11 1025.57 1025.87 1025.88 1026.19 1026.33 1026.41 1026.63 1026.43 1025.98 1025.57 1025.13 1024.68 1024.07 1023.46 1022.96 1022.33 1021.56
1006.45 1006.85 1007.36 1008.65 1009.00 1009.56 1010.42 1010.95 1010.64 1010.98 1010.96 1011.13 1011.23 1012.12 1013.18 1014.17 1015.67 1017.01 1018.34 1019.57 1020.78 1021.97 1022.79 1023.51 1024.04 1024.69 1025.53 1026.19 1026.45 1026.65 1026.83 1026.94 1026.99 1026.75 1026.33 1025.96 1025.53 1025.27 1024.82 1024.28 1023.75 1023.19 1022.48 1021.64
1007.35 1007.19 1008.23 1009.13 1009.96 1010.79 1011.10 1011.32 1011.90 1012.30 1012.57 1012.69 1013.24 1013.79 1014.79 1015.84 1017.15 1018.08 1019.36 1020.73 1021.82 1022.57 1023.36 1023.97 1024.57 1025.23 1025.93 1026.49 1026.86 1027.25 1027.42 1027.37 1027.24 1027.07 1026.74 1026.30 1025.91 1025.49 1024.88 1024.35 1023.85 1023.39 1022.93 1022.44
1007.98 1008.38 1008.80 1008.52 1008.57 1009.32 1009.81 1010.70 1012.22 1013.17 1013.78 1014.15 1014.44 1015.85 1016.52 1017.11 1018.13 1019.21 1020.59 1021.74 1022.35 1023.54 1024.30 1024.85 1025.29 1025.85 1026.40 1026.82 1027.22 1027.74 1028.09 1028.06 1028.20 1027.81 1027.25 1026.69 1026.25 1025.72 1025.13 1024.49 1023.84 1023.58 1023.09 1022.42
Wind_Speed
13 9 17 19 20 7 9 13 11 5 4 8 18 24 21 17 17 16 15 14 15 17 16 18 15 13 13 13 13 14 14 13 10 9 9 9 11 10 10 11 14 15 13 13
9 21 13 11 15 18 8 11 11 3 4 7 13 23 22 20 21 23 22 21 21 20 21 19 15 13 12 13 12 12 13 12 11 10 9 9 8 10 10 11 12 14 14 14
19 4 19 15 16 18 19 18 10 5 2 9 11 23 24 19 24 23 21 21 20 22 22 20 15 13 9 10 10 10 12 13 13 14 9 8 7 7 8 9 10 11 13 13
17 18 15 17 23 19 19 14 15 11 5 8 2 14 14 5 8 10 17 17 19 18 16 14 12 11 7 8 8 10 12 12 12 13 12 15 10 11 8 8 8 8 11 13
11 13 17 20 17 19 10 9 14 15 14 12 17 11 8 3 9 10 12 13 12 10 8 7 3 2 4 5 6 7 7 8 10 11 13 10 12 8 6 5 7 9 9 12
17 5 19 14 10 19 9 10 8 7 8 11 18 16 17 17 12 13 12 11 9 6 4 4 4 4 5 6 6 4 2 2 4 7 10 11 10 9 6 7 6 6 6 6
15 11 5 11 13 14 16 15 6 7 9 13 4 13 21 4 6 9 12 10 7 6 8 6 7 7 9 10 9 9 10 12 11 8 4 3 6 6 6 6 4 4 4 5
15 13 18 13 15 11 23 20 8 11 10 10 10 15 9 3 18 16 13 12 7 8 8 8 10 9 10 11 11 12 12 13 13 13 13 11 12 7 7 9 6 6 5 5
16 19 8 14 13 18 19 23 16 9 2 4 10 13 13 11 10 10 12 10 8 10 11 11 11 10 11 12 13 13 13 13 14 13 11 12 12 11 10 10 9 6 7 7
9 10 10 18 14 18 13 16 12 11 9 13 13 16 15 6 14 17 13 11 11 13 14 12 10 11 10 11 11 13 13 13 13 13 12 11 12 12 11 10 11 10 9 10
13 12 5 15 21 21 10 14 11 9 12 9 9 13 17 19 14 12 15 14 15 16 14 12 10 9 10 10 10 11 12 12 12 12 11 11 11 11 11 10 10 10 10 11
27 11 12 19 10 18 24 23 25 10 15 16 15 15 6 2 8 12 7 12 15 15 14 12 11 9 8 9 9 10 10 11 10 10 10 11 11 11 12 11 12 12 11 11
20 10 7 6 5 7 20 20 20 18 4 14 13 14 11 8 2 4 12 15 15 15 14 12 10 8 8 7 7 8 8 9 9 9 9 10 11 12 12 12 12 12 13 12
17 17 22 19 20 13 18 27 22 24 14 16 16 21 19 9 14 11 14 15 16 16 14 11 9 7 7 6 7 7 8 8 8 8 10 11 11 11 11 11 12 12 11 12
15 15 25 26 23 11 19 23 29 25 25 20 23 23 24 22 11 16 18 17 17 16 15 12 9 7 5 6 6 7 8 9 8 9 10 10 10 11 10 10 12 12 11 10
22 7 14 22 25 21 13 20 23 28 30 27 23 21 27 22 9 16 19 20 20 18 15 12 10 8 6 6 7 7 7 7 7 10 11 10 10 11 12 12 11 11 11 11
18 13 11 21 27 22 17 18 23 25 29 29 26 29 28 14 16 19 20 21 19 18 15 12 9 8 6 6 5 5 5 6 9 11 11 11 12 11 11 11 11 11 12 13
8 7 9 9 10 19 11 22 24 22 22 28 21 21 28 23 10 6 14 19 19 17 14 11 8 8 7 6 5 6 5 7 7 7 6 7 8 9 10 11 12 13 12 12
16 11 6 4 12 11 7 14 29 24 32 26 25 31 12 8 10 5 7 12 15 14 11 9 8 8 7 6 5 6 6 6 7 7 8 8 9 10 10 11 12 12 12 12
17 17 12 3 9 11 20 7 11 18 17 26 27 28 16 17 11 11 17 16 15 14 11 10 10 9 7 6 5 6 6 5 7 7 8 8 9 9 10 11 12 12 12 12
8 15 19 19 8 4 11 6 9 12 12 6 18 23 20 16 3 17 20 16 15 13 13 11 10 8 7 5 4 6 5 6 6 7 8 8 9 10 10 11 11 11 13 13
14 10 12 17 14 14 9 6 19 4 4 4 5 7 16 14 17 19 18 18 16 15 13 11 10 8 6 5 4 4 5 6 6 7 9 9 9 8 8 11 11 11 12 13
5 8 6 7 6 5 2 2 3 1 5 3 7 9 17 20 19 19 18 17 15 14 12 10 9 9 6 5 4 4 6 7 7 8 9 9 10 9 10 11 12 11 11 11
2 2 3 2 4 4 5 3 1 0 6 8 11 15 16 20 20 19 17 16 14 12 11 9 9 8 6 5 5 6 6 7 6 8 9 9 10 11 10 8 8 9 10 11
2 8 7 3 3 3 10 10 7 8 10 12 12 13 15 18 17 16 15 13 11 10 9 8 7 6 6 4 5 6 7 7 8 9 9 9 8 9 10 9 9 10 11 12
6 6 7 5 6 1 1 15 14 13 13 13 17 15 13 15 16 16 13 11 11 10 8 7 6 5 5 4 5 6 6 7 8 8 8 8 9 9 9 10 11 14 18 22
Wind_Direction
185 200 206 203 209 224 225 215 218 207 197 226 240 257 257 248 245 248 247 248 254 256 256 258 264 267 262 261 251 248 245 230 221 216 217 227 224 226 228 227 219 223 225 223
185 227 206 214 215 217 209 218 225 232 224 228 259 262 264 257 251 247 248 249 255 263 264 259 256 255 265 265 257 248 243 235 218 220 216 221 211 223 226 231 229 226 223 221
209 165 196 184 198 211 225 229 212 239 152 235 283 270 254 248 249 246 250 255 255 252 258 266 265 261 262 263 263 253 244 236 228 224 220 217 227 233 224 225 229 227 228 227
230 221 195 205 219 204 226 221 229 219 234 254 194 284 263 187 222 227 234 240 241 245 251 266 267 269 276 275 276 262 258 252 245 231 220 216 215 224 222 225 221 219 217 226
210 186 194 207 210 200 239 179 201 212 231 269 238 266 253 185 238 220 223 223 227 238 241 257 263 314 336 321 299 273 258 251 238 226 221 218 229 242 242 222 218 213 212 222
216 216 201 209 195 190 142 134 148 197 222 244 232 227 258 240 232 218 205 221 216 216 221 143 94 57 38 22 23 24 60 14 234 218 217 223 231 236 232 230 226 222 221 226
214 190 188 199 179 187 184 167 169 203 210 240 200 216 249 298 326 242 226 228 214 179 156 134 98 71 52 44 45 52 61 56 45 55 38 280 246 246 250 266 255 269 239 237
202 203 201 183 194 179 200 191 191 213 221 250 160 233 239 218 219 231 221 238 178 167 138 118 96 85 77 63 58 60 59 63 57 58 57 51 51 54 49 40 43 39 26 16
205 225 184 188 190 167 198 213 220 272 83 259 220 249 283 234 241 234 230 226 225 151 132 122 108 96 85 76 66 64 63 60 56 57 56 52 48 50 50 45 42 38 31 16
203 221 188 191 198 214 195 192 195 217 222 230 247 251 253 195 225 228 225 213 165 144 141 127 112 99 86 77 72 65 61 57 50 51 49 51 48 47 45 43 38 27 20 12
218 227 137 161 203 186 179 193 218 223 230 228 254 242 241 241 232 217 225 213 167 155 143 131 117 102 93 82 71 63 56 51 47 42 42 42 38 34 32 30 21 13 3 1
210 235 221 203 212 220 205 203 195 192 204 226 247 251 130 164 246 251 231 163 157 150 146 138 125 113 96 84 72 61 55 50 39 39 41 39 35 27 20 12 7 1 354 352
179 208 190 182 236 227 223 216 215 228 271 213 216 249 262 200 149 185 162 159 155 149 144 139 131 117 102 86 71 59 50 47 39 33 37 37 36 21 11 2 356 356 351 349
187 219 218 220 213 178 202 213 211 211 216 224 222 245 246 225 223 167 163 165 158 157 155 146 135 119 101 84 67 47 41 32 35 44 39 25 15 22 5 357 351 349 350 349
202 221 217 232 246 232 205 211 211 213 220 220 230 227 251 248 201 188 172 161 166 168 165 158 143 120 96 82 65 50 37 25 18 41 42 27 6 13 359 356 357 346 344 352
210 217 207 225 233 233 227 216 212 215 219 227 239 242 244 257 207 178 181 175 179 176 164 150 139 124 99 68 53 47 35 26 25 40 35 19 6 4 7 353 345 342 345 353
196 210 197 231 224 224 226 219 212 218 220 223 224 232 242 229 204 191 190 190 180 172 164 156 142 126 109 80 66 68 52 43 43 37 28 15 4 358 351 343 339 339 349 349
185 183 208 212 173 229 224 224 222 226 226 227 227 233 242 232 193 178 192 186 173 163 156 147 138 127 105 88 82 80 64 55 52 48 34 16 2 351 343 343 346 343 344 337
201 205 226 244 230 264 266 214 207 200 231 226 221 233 220 106 130 195 166 164 156 149 141 135 127 117 107 92 89 89 68 57 49 33 17 7 358 346 340 340 339 336 331 329
211 199 219 206 230 232 236 196 196 197 241 226 218 228 181 151 193 205 159 145 136 136 134 133 126 120 109 93 97 97 75 59 39 16 1 353 348 340 333 332 332 328 323 317
185 199 215 213 229 254 247 138 160 166 230 206 209 218 171 193 242 123 141 136 133 130 129 130 127 116 103 92 104 96 83 51 20 0 347 343 339 331 326 327 324 320 320 318
188 185 225 217 216 233 150 110 184 195 33 141 121 155 166 118 121 131 134 135 135 131 132 136 132 121 102 89 87 84 61 21 2 352 340 335 331 328 327 324 319 321 319 319
196 193 178 219 202 354 308 81 22 324 128 171 135 126 138 135 139 141 138 139 140 140 136 136 136 126 100 74 58 64 29 7 356 343 332 330 331 328 330 326 325 325 326 320
159 246 178 153 181 205 255 286 8 177 142 138 127 139 146 143 147 144 142 141 139 139 136 134 133 127 112 75 54 39 16 360 351 338 334 332 331 332 323 323 320 320 320 322
132 154 161 253 230 299 243 222 177 129 121 120 122 132 138 138 142 140 137 137 135 131 129 128 125 117 98 64 50 32 13 2 351 338 330 328 325 323 323 322 322 319 316 317
200 165 195 238 153 32 245 173 161 150 144 136 128 128 130 137 136 132 129 132 131 131 131 125 119 111 87 60 46 34 16 6 347 325 331 332 327 328 322 321 316 313 312 313